| time (UTC) | temp F | wind direction | speed MPH | gust MPH | rain 1hr in | rain 24hr in | rain mn in | humidity % | barometer mb |
| 20260510233517 | 98 | 270 | 8.0 | 15.0 | 0.00 | 0.00 | 0.00 | 9 | 1011.9 |
| 20260510232517 | 98 | 293 | 7.0 | 17.0 | 0.00 | 0.00 | 0.00 | 9 | 1011.9 |
| 20260510231517 | 98 | 248 | 8.0 | 16.0 | 0.00 | 0.00 | 0.00 | 9 | 1011.8 |
| 20260510230517 | 98 | 270 | 6.0 | 15.0 | 0.00 | 0.00 | 0.00 | 9 | 1011.9 |
| 20260510225517 | 98 | 248 | 5.0 | 12.0 | 0.00 | 0.00 | 0.00 | 9 | 1011.9 |
| 20260510224517 | 98 | 248 | 7.0 | 14.0 | 0.00 | 0.00 | 0.00 | 9 | 1011.9 |
| 20260510223517 | 98 | 225 | 5.0 | 12.0 | 0.00 | 0.00 | 0.00 | 9 | 1011.9 |
| 20260510222517 | 99 | 270 | 8.0 | 15.0 | 0.00 | 0.00 | 0.00 | 9 | 1012.1 |
| 20260510221517 | 98 | 248 | 8.0 | 15.0 | 0.00 | 0.00 | 0.00 | 9 | 1012.2 |
| 20260510220517 | 99 | 270 | 7.0 | 12.0 | 0.00 | 0.00 | 0.00 | 9 | 1012.2 |
| 20260510215517 | 99 | 248 | 6.0 | 12.0 | 0.00 | 0.00 | 0.00 | 9 | 1012.3 |
| 20260510214517 | 99 | 248 | 6.0 | 12.0 | 0.00 | 0.00 | 0.00 | 9 | 1012.6 |
| 20260510213517 | 99 | 248 | 7.0 | 12.0 | 0.00 | 0.00 | 0.00 | 9 | 1012.6 |
| 20260510212517 | 99 | 248 | 8.0 | 14.0 | 0.00 | 0.00 | 0.00 | 9 | 1012.6 |
| 20260510211517 | 99 | 248 | 5.0 | 13.0 | 0.00 | 0.00 | 0.00 | 9 | 1012.8 |
| 20260510210517 | 98 | 293 | 4.0 | 10.0 | 0.00 | 0.00 | 0.00 | 9 | 1012.9 |
| 20260510205517 | 98 | 293 | 7.0 | 14.0 | 0.00 | 0.00 | 0.00 | 9 | 1013.0 |
| 20260510204517 | 98 | 270 | 7.0 | 15.0 | 0.00 | 0.00 | 0.00 | 9 | 1013.2 |
| 20260510203517 | 98 | 270 | 8.0 | 15.0 | 0.00 | 0.00 | 0.00 | 9 | 1013.2 |
| 20260510202517 | 99 | 248 | 7.0 | 14.0 | 0.00 | 0.00 | 0.00 | 9 | 1013.2 |
| 20260510201517 | 99 | 270 | 6.0 | 11.0 | 0.00 | 0.00 | 0.00 | 9 | 1013.4 |
| 20260510200517 | 97 | 270 | 6.0 | 11.0 | 0.00 | 0.00 | 0.00 | 10 | 1013.5 |
| 20260510195517 | 97 | 248 | 7.0 | 15.0 | 0.00 | 0.00 | 0.00 | 10 | 1013.6 |
| 20260510194517 | 97 | 315 | 6.0 | 12.0 | 0.00 | 0.00 | 0.00 | 10 | 1013.6 |
| 20260510193517 | 97 | 270 | 6.0 | 11.0 | 0.00 | 0.00 | 0.00 | 10 | 1013.7 |
| 20260510192517 | 98 | 270 | 7.0 | 15.0 | 0.00 | 0.00 | 0.00 | 10 | 1013.7 |
| 20260510191517 | 97 | 270 | 6.0 | 16.0 | 0.00 | 0.00 | 0.00 | 10 | 1013.8 |
| 20260510190517 | 96 | 270 | 5.0 | 11.0 | 0.00 | 0.00 | 0.00 | 11 | 1014.0 |
| 20260510185517 | 97 | 203 | 3.0 | 7.0 | 0.00 | 0.00 | 0.00 | 11 | 1014.0 |
| 20260510184517 | 96 | 225 | 3.0 | 7.0 | 0.00 | 0.00 | 0.00 | 11 | 1014.3 |
| 20260510183517 | 95 | 248 | 3.0 | 8.0 | 0.00 | 0.00 | 0.00 | 12 | 1014.3 |
| 20260510182517 | 95 | 180 | 3.0 | 6.0 | 0.00 | 0.00 | 0.00 | 12 | 1014.4 |
| 20260510181517 | 93 | 203 | 4.0 | 8.0 | 0.00 | 0.00 | 0.00 | 12 | 1014.6 |
| 20260510180517 | 93 | 113 | 4.0 | 8.0 | 0.00 | 0.00 | 0.00 | 12 | 1014.6 |
| 20260510175517 | 93 | 270 | 2.0 | 6.0 | 0.00 | 0.00 | 0.00 | 12 | 1014.5 |
| 20260510174517 | 92 | 113 | 2.0 | 6.0 | 0.00 | 0.00 | 0.00 | 13 | 1014.5 |
| 20260510173517 | 92 | 135 | 3.0 | 7.0 | 0.00 | 0.00 | 0.00 | 13 | 1014.6 |
| 20260510172517 | 91 | 113 | 2.0 | 6.0 | 0.00 | 0.00 | 0.00 | 13 | 1014.6 |
| 20260510171517 | 91 | 203 | 2.0 | 7.0 | 0.00 | 0.00 | 0.00 | 13 | 1014.7 |
| 20260510170517 | 90 | 203 | 2.0 | 7.0 | 0.00 | 0.00 | 0.00 | 13 | 1014.7 |
| 20260510165517 | 90 | 158 | 3.0 | 8.0 | 0.00 | 0.00 | 0.00 | 14 | 1014.7 |
| 20260510164517 | 90 | 158 | 3.0 | 7.0 | 0.00 | 0.00 | 0.00 | 14 | 1014.5 |
| 20260510163517 | 89 | 158 | 4.0 | 6.0 | 0.00 | 0.00 | 0.00 | 15 | 1014.5 |
| 20260510162517 | 89 | 135 | 2.0 | 5.0 | 0.00 | 0.00 | 0.00 | 15 | 1014.5 |
| 20260510161517 | 88 | 203 | 4.0 | 7.0 | 0.00 | 0.00 | 0.00 | 15 | 1014.5 |
| 20260510160517 | 88 | 158 | 2.0 | 6.0 | 0.00 | 0.00 | 0.00 | 16 | 1014.5 |
| 20260510155517 | 87 | 180 | 2.0 | 6.0 | 0.00 | 0.00 | 0.00 | 16 | 1014.5 |
| 20260510154517 | 86 | 180 | 2.0 | 5.0 | 0.00 | 0.00 | 0.00 | 16 | 1014.4 |
| 20260510153517 | 85 | 135 | 1.0 | 4.0 | 0.00 | 0.00 | 0.00 | 17 | 1014.5 |
| 20260510152517 | 85 | 180 | 2.0 | 5.0 | 0.00 | 0.00 | 0.00 | 17 | 1014.4 |
| 20260510151517 | 85 | 203 | 3.0 | 6.0 | 0.00 | 0.00 | 0.00 | 17 | 1014.4 |
| 20260510150517 | 84 | 203 | 2.0 | 5.0 | 0.00 | 0.00 | 0.00 | 17 | 1014.2 |
| 20260510145517 | 84 | 203 | 2.0 | 6.0 | 0.00 | 0.00 | 0.00 | 18 | 1014.2 |
| 20260510144517 | 83 | 158 | 1.0 | 5.0 | 0.00 | 0.00 | 0.00 | 20 | 1014.1 |
| 20260510143517 | 82 | 0.0 | 2.0 | 0.00 | 0.00 | 0.00 | 22 | 1014.1 | |
| 20260510142517 | 80 | 0.0 | 0.0 | 0.00 | 0.00 | 0.00 | 23 | 1014.0 | |
| 20260510141517 | 79 | 0.0 | 0.0 | 0.00 | 0.00 | 0.00 | 24 | 1014.0 | |
| 20260510140517 | 78 | 0.0 | 1.0 | 0.00 | 0.00 | 0.00 | 26 | 1013.8 | |
| 20260510135517 | 77 | 0.0 | 0.0 | 0.00 | 0.00 | 0.00 | 25 | 1013.8 | |
| 20260510134517 | 77 | 0.0 | 3.0 | 0.00 | 0.00 | 0.00 | 23 | 1013.7 | |
| 20260510133517 | 76 | 45 | 2.0 | 3.0 | 0.00 | 0.00 | 0.00 | 21 | 1013.6 |
| 20260510132517 | 75 | 68 | 3.0 | 6.0 | 0.00 | 0.00 | 0.00 | 22 | 1013.6 |
| 20260510131517 | 73 | 68 | 3.0 | 5.0 | 0.00 | 0.00 | 0.00 | 22 | 1013.5 |
| 20260510130517 | 72 | 68 | 3.0 | 7.0 | 0.00 | 0.00 | 0.00 | 23 | 1013.3 |
| 20260510125517 | 71 | 68 | 4.0 | 7.0 | 0.00 | 0.00 | 0.00 | 23 | 1013.2 |
| 20260510124517 | 71 | 68 | 4.0 | 7.0 | 0.00 | 0.00 | 0.00 | 24 | 1013.1 |
| 20260510123517 | 71 | 45 | 3.0 | 5.0 | 0.00 | 0.00 | 0.00 | 24 | 1012.9 |
| 20260510122517 | 72 | 68 | 1.0 | 4.0 | 0.00 | 0.00 | 0.00 | 23 | 1012.9 |
| 20260510121517 | 72 | 68 | 1.0 | 4.0 | 0.00 | 0.00 | 0.00 | 23 | 1012.8 |
| 20260510120517 | 73 | 90 | 4.0 | 6.0 | 0.00 | 0.00 | 0.00 | 22 | 1012.9 |
| 20260510115517 | 75 | 90 | 5.0 | 11.0 | 0.00 | 0.00 | 0.00 | 21 | 1012.9 |
| 20260510114517 | 79 | 90 | 4.0 | 9.0 | 0.00 | 0.00 | 0.00 | 19 | 1012.5 |
| 20260510113517 | 81 | 315 | 5.0 | 14.0 | 0.00 | 0.00 | 0.00 | 15 | 1012.3 |
| 20260510112517 | 79 | 293 | 2.0 | 6.0 | 0.00 | 0.00 | 0.00 | 16 | 1012.3 |
| 20260510111517 | 79 | 270 | 5.0 | 8.0 | 0.00 | 0.00 | 0.00 | 16 | 1012.3 |
| 20260510110517 | 78 | 270 | 6.0 | 12.0 | 0.00 | 0.00 | 0.00 | 17 | 1012.4 |
| 20260510105517 | 77 | 270 | 6.0 | 12.0 | 0.00 | 0.00 | 0.00 | 17 | 1012.3 |
| 20260510104517 | 74 | 293 | 6.0 | 10.0 | 0.00 | 0.00 | 0.00 | 19 | 1012.4 |
| 20260510103517 | 73 | 315 | 1.0 | 3.0 | 0.00 | 0.00 | 0.00 | 22 | 1012.4 |
| 20260510102517 | 73 | 0 | 1.0 | 2.0 | 0.00 | 0.00 | 0.00 | 22 | 1012.5 |
| 20260510101517 | 74 | 0.0 | 2.0 | 0.00 | 0.00 | 0.00 | 21 | 1012.5 | |
| 20260510100517 | 74 | 0 | 1.0 | 3.0 | 0.00 | 0.00 | 0.00 | 21 | 1012.4 |
| 20260510095517 | 75 | 0 | 1.0 | 3.0 | 0.00 | 0.00 | 0.00 | 21 | 1012.3 |
| 20260510094517 | 76 | 0.0 | 1.0 | 0.00 | 0.00 | 0.00 | 20 | 1012.2 | |
| 20260510093517 | 76 | 0 | 1.0 | 3.0 | 0.00 | 0.00 | 0.00 | 19 | 1012.2 |
| 20260510092517 | 77 | 68 | 1.0 | 3.0 | 0.00 | 0.00 | 0.00 | 19 | 1012.1 |
| 20260510091517 | 78 | 90 | 1.0 | 3.0 | 0.00 | 0.00 | 0.00 | 19 | 1012.2 |
| 20260510090517 | 80 | 90 | 1.0 | 3.0 | 0.00 | 0.00 | 0.00 | 18 | 1012.2 |
| 20260510085517 | 82 | 0 | 1.0 | 3.0 | 0.00 | 0.00 | 0.00 | 16 | 1012.1 |
| 20260510084517 | 83 | 315 | 2.0 | 5.0 | 0.00 | 0.00 | 0.00 | 14 | 1012.0 |
| 20260510083517 | 84 | 270 | 1.0 | 4.0 | 0.00 | 0.00 | 0.00 | 14 | 1011.9 |
| 20260510082517 | 84 | 293 | 4.0 | 14.0 | 0.00 | 0.00 | 0.00 | 14 | 1011.9 |
| 20260510081517 | 83 | 293 | 5.0 | 11.0 | 0.00 | 0.00 | 0.00 | 14 | 1011.9 |
| 20260510080517 | 83 | 293 | 3.0 | 9.0 | 0.00 | 0.00 | 0.00 | 14 | 1012.0 |
| 20260510075517 | 83 | 293 | 3.0 | 7.0 | 0.00 | 0.00 | 0.00 | 14 | 1012.1 |
| 20260510074517 | 83 | 315 | 4.0 | 10.0 | 0.00 | 0.00 | 0.00 | 14 | 1012.2 |
| 20260510073517 | 83 | 338 | 4.0 | 11.0 | 0.00 | 0.00 | 0.00 | 15 | 1012.2 |
| 20260510072517 | 83 | 293 | 3.0 | 7.0 | 0.00 | 0.00 | 0.00 | 15 | 1012.4 |
| 20260510071517 | 83 | 293 | 3.0 | 8.0 | 0.00 | 0.00 | 0.00 | 15 | 1012.4 |
| 20260510070517 | 83 | 293 | 7.0 | 11.0 | 0.00 | 0.00 | 0.00 | 15 | 1012.5 |
| 20260510065517 | 83 | 293 | 5.0 | 9.0 | 0.00 | 0.00 | 0.00 | 14 | 1012.5 |
| 20260510064517 | 83 | 293 | 5.0 | 9.0 | 0.00 | 0.00 | 0.00 | 14 | 1012.4 |
| 20260510063517 | 82 | 293 | 8.0 | 12.0 | 0.00 | 0.00 | 0.00 | 15 | 1012.3 |
| 20260510062517 | 83 | 270 | 7.0 | 13.0 | 0.00 | 0.00 | 0.00 | 15 | 1012.1 |
| 20260510061517 | 84 | 270 | 6.0 | 12.0 | 0.00 | 0.00 | 0.00 | 15 | 1012.0 |
| 20260510060517 | 87 | 270 | 5.0 | 10.0 | 0.00 | 0.00 | 0.00 | 13 | 1011.7 |
| 20260510055517 | 87 | 315 | 5.0 | 11.0 | 0.00 | 0.00 | 0.00 | 13 | 1011.4 |
| 20260510054517 | 87 | 315 | 4.0 | 12.0 | 0.00 | 0.00 | 0.00 | 13 | 1011.4 |
| 20260510053517 | 87 | 315 | 4.0 | 11.0 | 0.00 | 0.00 | 0.00 | 13 | 1011.2 |
| 20260510052517 | 87 | 293 | 6.0 | 13.0 | 0.00 | 0.00 | 0.00 | 13 | 1011.1 |
| 20260510051517 | 87 | 293 | 5.0 | 11.0 | 0.00 | 0.00 | 0.00 | 13 | 1011.1 |
| 20260510050517 | 87 | 315 | 6.0 | 12.0 | 0.00 | 0.00 | 0.00 | 13 | 1011.1 |
| 20260510045517 | 87 | 338 | 6.0 | 11.0 | 0.00 | 0.00 | 0.00 | 13 | 1011.0 |
| 20260510044517 | 87 | 315 | 5.0 | 13.0 | 0.00 | 0.00 | 0.00 | 13 | 1011.0 |
| 20260510043517 | 87 | 315 | 5.0 | 10.0 | 0.00 | 0.00 | 0.00 | 13 | 1010.9 |
| 20260510042517 | 87 | 293 | 4.0 | 8.0 | 0.00 | 0.00 | 0.00 | 13 | 1010.6 |
| 20260510041517 | 88 | 315 | 5.0 | 12.0 | 0.00 | 0.00 | 0.00 | 13 | 1010.6 |
| 20260510040517 | 88 | 293 | 5.0 | 12.0 | 0.00 | 0.00 | 0.00 | 13 | 1010.5 |
| 20260510035517 | 88 | 338 | 4.0 | 11.0 | 0.00 | 0.00 | 0.00 | 13 | 1010.3 |
| 20260510034517 | 87 | 315 | 4.0 | 9.0 | 0.00 | 0.00 | 0.00 | 13 | 1010.2 |
| 20260510033517 | 87 | 315 | 3.0 | 5.0 | 0.00 | 0.00 | 0.00 | 13 | 1010.1 |
| 20260510032517 | 87 | 338 | 4.0 | 9.0 | 0.00 | 0.00 | 0.00 | 13 | 1010.0 |
| 20260510031517 | 88 | 315 | 2.0 | 7.0 | 0.00 | 0.00 | 0.00 | 13 | 1009.7 |
| 20260510030517 | 88 | 338 | 2.0 | 4.0 | 0.00 | 0.00 | 0.00 | 12 | 1009.7 |
| 20260510025517 | 89 | 315 | 5.0 | 11.0 | 0.00 | 0.00 | 0.00 | 12 | 1009.6 |
| 20260510024517 | 89 | 315 | 3.0 | 8.0 | 0.00 | 0.00 | 0.00 | 12 | 1009.5 |
| 20260510023517 | 90 | 315 | 3.0 | 8.0 | 0.00 | 0.00 | 0.00 | 12 | 1009.4 |
| 20260510022517 | 90 | 315 | 3.0 | 7.0 | 0.00 | 0.00 | 0.00 | 12 | 1009.4 |
| 20260510021517 | 90 | 293 | 4.0 | 10.0 | 0.00 | 0.00 | 0.00 | 11 | 1009.4 |
| 20260510020517 | 91 | 293 | 5.0 | 9.0 | 0.00 | 0.00 | 0.00 | 11 | 1009.3 |
| 20260510015517 | 92 | 293 | 5.0 | 11.0 | 0.00 | 0.00 | 0.00 | 11 | 1009.2 |
| 20260510014517 | 92 | 270 | 4.0 | 9.0 | 0.00 | 0.00 | 0.00 | 11 | 1009.2 |
| 20260510013517 | 92 | 293 | 6.0 | 13.0 | 0.00 | 0.00 | 0.00 | 11 | 1009.2 |
| 20260510012517 | 93 | 270 | 6.0 | 11.0 | 0.00 | 0.00 | 0.00 | 11 | 1009.2 |
| 20260510011517 | 93 | 270 | 4.0 | 10.0 | 0.00 | 0.00 | 0.00 | 11 | 1009.2 |
| 20260510010517 | 94 | 248 | 4.0 | 9.0 | 0.00 | 0.00 | 0.00 | 11 | 1009.2 |
| 20260510005517 | 94 | 293 | 5.0 | 11.0 | 0.00 | 0.00 | 0.00 | 10 | 1009.2 |
| 20260510004517 | 94 | 338 | 5.0 | 14.0 | 0.00 | 0.00 | 0.00 | 10 | 1009.3 |
| 20260510003517 | 95 | 270 | 4.0 | 9.0 | 0.00 | 0.00 | 0.00 | 10 | 1009.2 |
| 20260510002517 | 95 | 293 | 7.0 | 13.0 | 0.00 | 0.00 | 0.00 | 10 | 1009.3 |
| 20260510001517 | 95 | 293 | 7.0 | 13.0 | 0.00 | 0.00 | 0.00 | 11 | 1009.3 |
| 20260510000517 | 96 | 270 | 6.0 | 12.0 | 0.00 | 0.00 | 0.00 | 10 | 1009.3 |
| 20260509235517 | 96 | 270 | 4.0 | 13.0 | 0.00 | 0.00 | 0.00 | 10 | 1009.4 |
| 20260509234517 | 96 | 293 | 3.0 | 8.0 | 0.00 | 0.00 | 0.00 | 10 | 1009.4 |